Regional Weather Roundup
Issued by NWS

Home | Current Version | Previous Version | Text Only | Print | Product List | Glossary Off
Versions: 1 2 3 4 5 6 7 8 9 10 11 12 13 14 15 16 17 18 19 20 21 22 23 24 25 26 27 28 29 30 31 32 33 34 35 36 37 38 39 40 41 42 43 44 45 46 47 48 49 50

000
ASUS43 KFSD 180602
RWRSD

WEATHER ROUNDUP FOR SOUTH DAKOTA
NATIONAL WEATHER SERVICE SIOUX FALLS SD
1200 AM CST WED JAN 18 2017

NOTE: "FAIR" INDICATES FEW OR NO CLOUDS BELOW 12,000 FEET WITH NO
SIGNIFICANT WEATHER AND/OR OBSTRUCTIONS TO VISIBILITY.


SDZ001>005-009-010-012>017-180700-
NORTHWEST AND NORTH CENTRAL SOUTH DAKOTA

CITY           SKY/WX    TMP DP  RH WIND       PRES   REMARKS
BUFFALO          N/A     34  20  56 W10       29.76R WCI  26
FAITH            N/A     29  18  63 SW8       29.82F WCI  21
MOBRIDGE       CLOUDY    17   9  70 SE8       29.79F WCI   7
$$

SDZ012>016-024>037-041>051-057-063-072>074-180700-
SOUTHWEST AND SOUTH CENTRAL SOUTH DAKOTA

CITY           SKY/WX    TMP DP  RH WIND       PRES   REMARKS
RAPID CTY ARPT CLOUDY    26  15  63 W6        29.86S WCI  19
PIERRE         CLOUDY    20  15  81 W3        29.86S
CUSTER         CLOUDY    31  16  54 W6        29.90F WCI  25
ELLSWORTH AFB  CLOUDY    36  19  51 W9        29.85S
PHILIP         CLOUDY    27  18  69 W10       29.87S WCI  17
PINE RIDGE     CLOUDY    14  10  84 CALM      29.91S
SPEARFISH      FAIR      39  19  45 CALM      29.86S
WINNER         FAIR      33  21  61 SW8       29.88F WCI  26
$$

SDZ004>011-016>023-039-040-180700-
NORTHEAST SOUTH DAKOTA

CITY           SKY/WX    TMP DP  RH WIND       PRES   REMARKS
ABERDEEN       CLOUDY    15  11  83 S7        29.85S WCI   5
WATERTOWN      CLOUDY    20  19  96 S10       29.86S WCI   9
BROOKINGS      CLOUDY    24  23  96 S14       29.88F WCI  12
SISSETON         N/A     36  28  73 VRB7      29.81S
$$

SDZ017-020-022-023-036>040-048>070-180700-
SOUTHEAST SOUTH DAKOTA

CITY           SKY/WX    TMP DP  RH WIND       PRES   REMARKS
SIOUX FALLS    CLOUDY    29  26  89 S9        29.95F WCI  20
HURON          CLOUDY    24  24 100 S8        29.88S WCI  15
CHAMBERLAIN    CLOUDY    19  17  92 CALM      29.88F
MITCHELL       CLOUDY    26  25  96 S9        29.91F WCI  17
YANKTON        CLOUDY    27  25  93 S8        29.97S WCI  18
$$

ABBREVIATIONS USED IN REMARKS
   TC - TEMPERATURE IN CELSIUS
  WCI - WIND CHILL INDEX
   HX - HEAT INDEX
  VSB - VISIBILITY




USA.gov is the U.S. government's official web portal to all federal, state and local government web resources and services.